world map with MVR marked

MVR - Airport

This information may not be accurate or current and is not valid for navigation or flight planning. No warranty of fitness for any purpose is made or implied.

flag of Cameroon

Donate via PayPal

Additional information is available on the NEW Great Circle Mapper

Location
City:  Maroua, Far North (Extrême-Nord), Cameroon
Name:Maroua Salak Airport
ICAO / IATA:FKKL / MVR

Details
Type:Airport (Aerodrome, Airfield)
Use:Public/Civil
Latitude:10°27'05"N (10.451392)
Longitude:14°15'26"E (14.257361)
Datum:WGS 1984
Elevation:1390 ft (424 m)
Runways:1
Longest:6890 × 148 ft (2100 × 45 m)

Time
Timezone:UTC+1 (DST+3)
Local Time:

Weather
METAR:FKKL  041400Z VRB04KT CAVOK 37/M01 Q1008
TAF:FKKL  041100Z 0412/0424 VRB08KT CAVOK

Related Locations
Nearby:
Farthest:NCPK: 12445 mi / 20028 km
Pukapuka Island (Te Ulu-o-te-Watu, Danger Island), CK

Find:

   beyond  
but within

Other Information
Maps:
Sources:

  


 


Great Circle Mapper   Great Circle Mapper
Great Circle Mapper FAQ   Great Circle Mapper FAQ
  Karl's Home Page
KLS²   KLS² Home
   GC on Facebook
Airlines of the World   Airlines of the World
Donate via PayPal


Copyright © 2004-2019, Karl L. Swartz. All rights reserved.
All trademarks mentioned herein belong to their respective owners.

Please see credits for attribution and copyright information.

Karl Swartz <karl@kls2.com>
  Powered by FreeBSD
Valid HTML 4.01!
Labeled with ICRA
hCard Microformat
Geo Microformat